{"data":{"norad_id":63242,"intl_designator":"2025-052AJ","name":"HERMES-1","alt_names":[],"object_type":"PAYLOAD","status":"ACTIVE","operator":null,"country":"IT","launch_date":"2025-03-15","launch_site_code":"AFWTR","launch_vehicle":null,"mission":null,"orbit_class":"UNKNOWN","rcs_meters":null,"size_class":null,"mass_kg":null,"dimensions":null,"purposes":[],"wikipedia_slug":null,"has_3d_model":false,"image_url":null,"decayed_at":null,"tle_current":{"epoch":"2026-09-22T22:07:38.879328Z","epoch_age_seconds":99622,"freshness":"FRESH","line1":"1 63242U 25052AJ  26265.92197777  .00003187  00000+0  14118-3 0  9997","line2":"2 63242  97.3748 155.7491 0006593 187.0714 173.0431 15.22332748 84660","mean_motion":15.22332748,"eccentricity":0.0006593,"inclination_deg":97.3748,"raan_deg":155.7491,"arg_perigee_deg":187.0714,"mean_anomaly_deg":173.0431,"bstar":0.00014118,"rev_number":8466,"period_min":94.591672017293,"perigee_km":494.2724013987,"apogee_km":503.3403389266,"semimajor_km":6876.9433701626,"source":"CELESTRAK","updated_at":"2026-09-23T09:00:21.907042Z"}}}